Tracking 19709 objects as of 21-Jun-2019
HD Live streaming from Space Station
objects crossing your sky now

FENGYUN 1C DEB

Track FENGYUN 1C DEB now!
10-day predictions


NORAD ID: 30322
Int'l Code: 1999-025AAK
Perigee: 806.6 km
Apogee: 1,014.6 km
Inclination: 98.4 °
Period: 103.1 minutes
Semi major axis: 7281 km
RCS: 0.0387 m2 (small)
Launch date: May 10, 1999
Source: People's Republic of China (PRC)
Launch site: Taiyaun Space Center, China (TSC)

Note: This is SATELLITE DEBRIS
aabbcc
Your satellite tracking list
Your tracking list is empty




NASA's NSSDC Master Catalog

Two Line Element Set (TLE):
1 30322U 99025AAK 19170.98795227  .00000086  00000-0  80787-4 0  9990
2 30322  98.3769 181.5121 0142772  70.1754 291.4738 13.97211784632086
Source of the keplerian elements: AFSPC